#timestamp,LO_Frequency,Hit,StdDev 
1509850815.4,286046994.1,N
1509850835.2,286046996.4,N
1509850855.1,286046989.0,Y
1509850856.0,286046989.0,P
1509850875.8,286046988.7,N
1509850895.7,286046991.0,N
1509850915.5,286046991.2,N
1509850935.3,286046991.5,N
1509850955.2,286046993.2,N
1509850975.9,286046991.0,Y
1509850995.7,286046994.9,P
1509851015.6,286046995.6,N
1509851035.4,286046995.1,N
1509851055.2,286046997.0,N
1509851075.1,286047001.2,N
1509851076.0,286047001.2,N
1509851095.8,286046996.5,N
1509851115.6,286046997.7,N
1509851135.5,286046998.2,N
1509851155.3,286047000.7,N
1509851175.1,286047000.6,N
1509851195.9,286047005.9,N
1509851215.7,286047004.1,N
1509851235.5,286047001.0,N
1509851255.4,286047000.8,N
1509851275.2,286046999.9,N
1509851295.0,286047003.1,N
1509851295.9,286047003.1,N
1509851315.8,286047008.5,N
1509851335.6,286047008.5,N
1509851355.4,286047006.2,N
1509851375.3,286047008.9,N
1509851395.1,286047009.5,N
1509851415.8,286047012.2,N
1509851435.7,286047013.6,N
1509851455.5,286047013.6,N
1509851475.3,286047013.9,N
1509851495.2,286047010.4,N
1509851515.9,286047006.6,N
1509851535.7,286047007.6,N
1509851555.6,286047008.1,N
1509851575.4,286047012.4,N
1509851595.2,286047011.2,N
1509851615.1,286047010.9,N
1509851616.0,286047010.9,N
1509851635.8,286047013.6,N
1509851655.6,286047012.2,N
1509851675.5,286047008.9,N
1509851695.3,286047008.0,N
1509851715.1,286047011.8,N
1509851735.9,286047019.1,Y
1509851755.7,286047011.6,P
1509851775.5,286047004.9,N
1509851795.4,286047002.1,N
1509851815.2,286047000.8,N
1509851835.0,286046999.1,N
1509851835.9,286046999.1,N
1509851855.8,286047002.8,N
1509851875.6,286047000.7,N
1509851895.4,286046998.1,N
1509851915.3,286047000.5,N
1509851935.1,286046997.1,N
1509851955.8,286047000.3,N
1509851975.7,286047000.8,N
1509851995.5,286047002.6,N
1509852015.3,286047000.1,N
1509852035.2,286046998.6,N
1509852055.9,286046997.8,N
1509852075.7,286046995.5,N
1509852095.6,286046993.9,N
1509852115.4,286046995.7,N
1509852135.2,286047000.6,N
1509852155.1,286047000.5,N
1509852156.0,286047000.5,N
1509852175.8,286047004.1,N
1509852195.6,286047001.6,N
1509852215.5,286047002.8,N
1509852235.3,286046999.3,N
1509852255.1,286047001.8,N
1509852275.9,286047005.4,N
1509852295.7,286047001.4,N
1509852315.5,286047000.9,N
1509852335.4,286047007.5,N
1509852355.2,286047004.5,N
1509852375.0,286047004.8,N
1509852375.9,286047004.8,N
1509852395.8,286047003.7,N
1509852415.6,286047005.3,N
1509852435.4,286047006.6,N
1509852455.3,286047004.7,N
1509852475.1,286047001.8,N
1509852476.0,286047001.8,N
1509852495.8,286047002.5,N
1509852515.7,286047005.9,N
1509852535.5,286047006.5,N
1509852555.3,286047008.1,N
1509852575.2,286047012.8,Y
1509852595.9,286047010.1,P
1509852615.7,286047009.2,N
1509852635.6,286047004.6,N
1509852655.4,286047004.9,N
1509852675.2,286047002.2,N
1509852695.1,286046997.4,N
1509852696.0,286046997.4,N
1509852715.8,286046993.6,N
1509852735.6,286046990.9,N
1509852755.5,286046992.3,N
1509852775.3,286046992.1,N
1509852795.1,286046988.9,N
1509852815.9,286046986.9,N
1509852835.7,286046985.6,N
1509852855.5,286046987.8,N
1509852875.4,286046991.3,N
1509852895.2,286046990.4,N
1509852915.0,286046992.5,N
1509852915.9,286046992.5,N
1509852935.8,286046994.4,N
1509852955.6,286046994.7,N
1509852975.4,286046993.0,N
1509852995.3,286046993.1,N
1509853015.1,286046993.7,N
1509853035.8,286046993.3,N
1509853055.7,286046996.0,N
1509853075.5,286046995.9,N
1509853095.3,286046994.4,N
1509853115.2,286046995.9,N
1509853135.9,286046996.0,N
1509853155.7,286046990.6,N
1509853175.6,286046989.3,N
1509853195.4,286046991.0,N
1509853215.2,286046992.8,N
1509853235.1,286046993.1,N
1509853236.0,286046993.1,N
1509853255.8,286046992.8,N
1509853275.6,286046991.3,Y
1509853295.5,286046997.4,P
1509853315.3,286046995.0,N
1509853335.1,286046997.5,N
1509853355.9,286046995.0,N
1509853375.7,286046994.9,N
1509853395.5,286046999.6,N
1509853415.4,286046996.0,N
1509853435.2,286046993.5,Y
1509853455.0,286046998.6,P
1509853456.0,286046998.6,N
1509853475.8,286047000.2,N
1509853495.6,286047002.7,N
1509853515.5,286047001.3,N
1509853535.3,286047003.1,N
1509853555.1,286047003.5,N
1509853575.9,286047000.5,N
1509853595.7,286047002.1,N
1509853615.5,286047003.3,N
1509853635.3,286047003.2,N
1509853655.2,286047007.6,Y
1509853675.0,286047001.7,P
1509853675.9,286047001.7,P
1509853695.8,286047004.4,P
1509853715.6,286047011.9,Y
1509853735.4,286047006.7,P
1509853755.3,286047001.5,N
1509853775.1,286046997.6,N
1509853795.8,286046996.3,N
1509853815.7,286046992.3,N
1509853835.5,286046993.5,N
1509853855.3,286046995.7,N
1509853875.2,286046997.1,N
1509853895.0,286046996.6,N
1509853895.9,286046996.6,N
1509853915.7,286046995.8,N
1509853935.6,286046997.1,N
1509853955.4,286046999.0,N
1509853975.2,286047004.0,N
1509853995.1,286046996.6,N
1509853996.0,286046996.6,N
1509854015.8,286047000.4,N
1509854035.6,286046996.9,N
1509854055.5,286046997.1,N
1509854075.3,286047003.0,N
1509854095.1,286047006.0,N
1509854115.9,286047005.4,N
1509854135.7,286047006.2,N
1509854155.5,286047006.1,N
1509854175.4,286047006.6,N
1509854195.2,286047008.2,N
1509854215.0,286047009.8,N
1509854215.9,286047009.8,N
1509854235.8,286047012.3,N
1509854255.6,286047012.3,N
1509854275.4,286047008.8,N
1509854295.3,286047008.9,N
1509854315.1,286047010.2,N
1509854335.8,286047013.5,N
1509854355.7,286047013.1,N
1509854375.5,286047012.6,N
1509854395.3,286047018.2,N
